Regional Weather Roundup
Issued by NWS

Home | Current Version | Previous Version | Text Only | Print | Product List | Glossary Off
Versions: 1 2 3 4 5 6 7 8 9 10 11 12 13 14 15 16 17 18 19 20 21 22 23 24 25 26 27 28

000
ASUS45 KSLC 250610
RWRUT

UTAH REGIONAL WEATHER ROUNDUP
NATIONAL WEATHER SERVICE SALT LAKE CITY UT
1200 AM MDT FRI APR 25 2014

UTZ001>011-023>025-250700-

NORTHERN UTAH

CITY           SKY/WX    TMP DP  RH WIND       PRES   REMARKS
HILL AFB       MOCLDY    57  27  31 NW9       29.89F
LOGAN          CLOUDY    46  34  62 N8        29.91R
OGDEN          CLOUDY    57  28  33 N8        29.88S
PROVO AIRPORT  MOCLDY    52  34  50 E5        29.88S
SALT LAKE CITY MOCLDY    51  33  50 E6        29.86S
VERNAL         PTCLDY    45  23  42 NW6       29.94F
WENDOVER       CLOUDY    55  30  38 W13       29.89S
HEBER CITY     PTCLDY    39  23  52 CALM      29.92S
WEST JORDAN    CLEAR     48  30  49 NW6       29.88F

$$

UTZ012>022-026-027-250700-

SOUTHERN UTAH

CITY           SKY/WX    TMP DP  RH WIND       PRES   REMARKS
BRYCE CANYON   CLEAR     32  15  49 W3        30.05S
CEDAR CITY     CLEAR     48   8  19 S7        29.94S
MILFORD        PTCLDY    55  13  18 S12       29.90S
MOAB/CYNLANDS  CLEAR     53   7  15 CALM      29.90F
PRICE          PTCLDY    43   8  23 NE8       29.95F
ST GEORGE      PTCLDY    63  10  13 SE10      29.86S
KANAB            N/A     43  18  36 NE5       29.99S

$$

REGIONAL REPORTS     COLORADO/ARIZONA

CITY           SKY/WX    TMP DP  RH WIND       PRES   REMARKS
CRAIG, CO      MOCLDY    39  25  57 CALM      30.01F
GRAND JUNCTION PTCLDY    47  18  31 SE8       29.96S
RIFLE          PTCLDY    43  21  41 E5        30.01S
MONTROSE       PTCLDY    45  21  38 SE9       30.04F
CORTEZ         CLEAR     34  10  37 E6        30.04F WCI  29
PAGE, AZ       CLEAR     64  13  13 SW6       29.89F
GRAND CANYON   CLEAR     32   5  32 E3        30.07F
KINGMAN        CLEAR     57   3  11 S12       29.91F
FLAGSTAFF      CLEAR     41   8  25 W8        30.10F

$$

REGIONAL REPORTS    NEVADA/IDAHO/WYOMING

CITY           SKY/WX    TMP DP  RH WIND       PRES   REMARKS
LAS VEGAS, NV  PTCLDY    75   8   7 S15       29.76F
ELY            MOCLDY    48  25  40 NW8       29.93F
ELKO           CLOUDY    51  34  52 S7        29.89F
POCATELLO, ID  CLOUDY    43  40  89 S7        29.90S
BURLEY         CLOUDY    43  40  89 SE3       29.88F
EVANSTON, WY   MOCLDY    42  19  39 CALM      29.97F
ROCK SPRINGS   PTCLDY    41  18  39 SW6       29.98F

$$



USA.gov is the U.S. government's official web portal to all federal, state and local government web resources and services.